This is the latest recevied weather packets stored in our database for station/object KD2ZLA. If no packets are shown the sender has not sent any weather packets the latest 10 day(s).
| Time | Temp. | Humidity | Pressure | Rain* | Wind** | Luminosity | Snow |
|---|---|---|---|---|---|---|---|
| 1777415067 | 20° C | 31% | 1012.3 hPa | 0 mm | - | 98 W/m² | - |
| 1777414767 | 20° C | 30% | 1012.3 hPa | 0 mm | - | 114 W/m² | - |
| 1777414464 | 20.56° C | 31% | 1012.4 hPa | 0 mm | - | 111 W/m² | - |
| 1777414162 | 20.56° C | 31% | 1012.3 hPa | 0 mm | - | 108 W/m² | - |
| 1777413859 | 20.56° C | 29% | 1012.4 hPa | 0 mm | - | 109 W/m² | - |
| 1777413554 | 20.56° C | 30% | 1012.4 hPa | 0 mm | - | 126 W/m² | - |
| 1777413250 | 20.56° C | 29% | 1012.3 hPa | 0 mm | - | 123 W/m² | - |
| 1777412945 | 20.56° C | 29% | 1012.4 hPa | 0 mm | - | 149 W/m² | - |
| 1777412645 | 20.56° C | 29% | 1012.3 hPa | 0 mm | - | 173 W/m² | - |
| 1777412342 | 20.56° C | 30% | 1012.4 hPa | 0 mm | - | 180 W/m² | - |
| 1777412037 | 20.56° C | 28% | 1012.4 hPa | 0 mm | - | 149 W/m² | - |
| 1777411737 | 20.56° C | 28% | 1012.6 hPa | 0 mm | - | 134 W/m² | - |
| 1777411432 | 20.56° C | 29% | 1012.7 hPa | 0 mm | - | 148 W/m² | - |
| 1777411127 | 20.56° C | 28% | 1012.6 hPa | 0 mm | - | 92 W/m² | - |
| 1777410826 | 20.56° C | 28% | 1012.7 hPa | 0 mm | - | 85 W/m² | - |
| 1777410525 | 20.56° C | 28% | 1012.6 hPa | 0 mm | - | 107 W/m² | - |
| 1777410225 | 20.56° C | 27% | 1012.5 hPa | 0 mm | - | 112 W/m² | - |
| 1777409920 | 20.56° C | 27% | 1012.8 hPa | 0 mm | - | 118 W/m² | - |
| 1777409616 | 20.56° C | 28% | 1012.8 hPa | 0 mm | - | 112 W/m² | - |
| 1777409312 | 20.56° C | 28% | 1012.8 hPa | 0 mm | - | 104 W/m² | - |
| 1777409007 | 20.56° C | 28% | 1012.7 hPa | 0 mm | - | 116 W/m² | - |
| 1777408705 | 20.56° C | 28% | 1013 hPa | 0 mm | - | 139 W/m² | - |
| 1777408401 | 20.56° C | 28% | 1013.2 hPa | 0 mm | - | 145 W/m² | - |
| 1777408100 | 20.56° C | 27% | 1013.1 hPa | 0 mm | - | 166 W/m² | - |
| 1777407796 | 20.56° C | 28% | 1013.5 hPa | 0 mm | - | 156 W/m² | - |
* Rain latest hour (hover to see other rain measurements)
** Current wind speed in m/s (hover to see current wind gust speed)